Flag for U.S.A. Weather past 2 weeks in San Francisco, California, U.S.A.

Now
63 °F

Passing clouds.


Feels Like: 63 °F
Forecast: 61 / 70 °F
Wind: 14 mph from Southwest

Location: San Francisco International Airport

Current Time: Sep 1, 2015 at 9:52:32 PM

Latest Report: Sep 1, 2015 at 8:56 PM


Visibility: 10 mi

Pressure: 29.92 "Hg

Humidity: 75%

Dew point: 55 °F

Location of San FranciscoLocation

Historic Weather in San Francisco — Graph

°F

San Francisco temperature yesterday

Maximum temperature yesterday: 75 °F (at 1:56 PM)
Minimum temperature yesterday: 60 °F (at 3:56 AM)
Average temperature yesterday: 66 °F

Past Weeks' High & Low Weather Summary

 TemperatureHumidityPressure
High92 °F (Aug 28, 1:56 PM)91% (Aug 28, 8:56 PM)30.06 "Hg (Aug 28, 8:56 PM)
Low58 °F (Aug 25, 5:56 AM)27% (Aug 28, 1:56 PM)29.83 "Hg (Aug 17, 7:56 PM)
Average66 °F72%29.95 "Hg
* Reported Aug 17 7:56 PM — Sep 1 7:56 PM, San Francisco, Weather by CustomWeather, © 2015

Note: Actual official high and low records may vary slightly from our data, if they occured in-between our weather recording intervals... More about our weather records

Advertising

San Francisco weather history for previous 24 hours

 ConditionsComfort  
Time TempWeatherWind HumidityBarometerVisibility
7:56 PM
Tue, Sep 1
64 °FPassing clouds.18 mph75%29.90 "Hg10 mi
6:56 PM65 °FScattered clouds.10 mph73%29.89 "Hg10 mi
5:56 PM69 °FScattered clouds.15 mph61%29.88 "Hg10 mi
4:56 PM73 °FScattered clouds.18 mph51%29.85 "Hg10 mi
3:56 PM75 °FPassing clouds.16 mph48%29.85 "Hg10 mi
1:56 PM74 °FPassing clouds.12 mph50%29.88 "Hg10 mi
12:56 PM74 °FPassing clouds.10 mph50%29.88 "Hg10 mi
11:56 AM72 °FPassing clouds.12 mph57%29.90 "Hg10 mi
10:56 AM71 °FPassing clouds.5 mph57%29.89 "Hg10 mi
9:56 AM68 °FPassing clouds.3 mph68%29.89 "Hg10 mi
8:56 AM66 °FPassing clouds.No wind70%29.88 "Hg10 mi
7:56 AM62 °FPassing clouds.No wind78%29.88 "Hg10 mi
6:56 AM60 °FPassing clouds.No wind83%29.88 "Hg10 mi
5:56 AM60 °FPassing clouds.No wind83%29.87 "Hg10 mi
4:56 AM60 °FPassing clouds.No wind80%29.86 "Hg10 mi
3:56 AM60 °FPassing clouds.3 mph83%29.86 "Hg10 mi
2:56 AM61 °FPassing clouds.No wind83%29.87 "Hg10 mi
1:56 AM61 °FPassing clouds.3 mph81%29.87 "Hg10 mi
12:56 AM61 °FPassing clouds.5 mph83%29.88 "Hg10 mi
11:56 PM
Mon, Aug 31
62 °FPassing clouds.5 mph80%29.88 "Hg10 mi
10:56 PM63 °FPassing clouds.7 mph78%29.88 "Hg10 mi
9:56 PM63 °FPassing clouds.13 mph78%29.89 "Hg10 mi
Weather by CustomWeather, © 2015

See weather overviewHow to use our weather pages